Location: Knowlton
(51.2333°N, 1.2667°E)
Time: 03:41:24
(UTC+00:00)

KAITUO 1B - Visible Passes

Search period start: 29 November 2021 00:00
Search period end: 09 December 2021 00:00
Orbit: 490 x 506 km, 97.4° (Epoch: 28 November)

Date Brightness Start Highest point End Pass type
(mag) Time Alt. Az. Time Alt. Az. Time Alt. Az.
29 Nov ? 06:32:43 10° NNE 06:36:28 76° ESE 06:40:10 10° S visible
29 Nov ? 17:15:10 10° SSE 17:18:50 70° ENE 17:22:32 10° N visible
29 Nov ? 18:51:31 10° WSW 18:53:01 12° W 18:54:30 10° WNW visible
30 Nov ? 06:12:37 10° NNE 06:16:14 44° E 06:19:47 10° S visible
30 Nov ? 16:55:12 10° SE 16:58:42 42° ENE 17:02:14 10° N visible
30 Nov ? 18:29:55 10° SW 18:32:36 19° W 18:35:20 10° NW visible
01 Dec ? 05:52:41 10° NE 05:55:56 27° E 05:59:08 10° SSE visible
01 Dec ? 16:35:29 10° ESE 16:38:36 27° ENE 16:41:47 10° N visible
01 Dec ? 18:08:58 10° SSW 18:12:15 30° W 18:15:35 10° NNW visible
02 Dec ? 05:33:01 10° NE 05:35:34 17° E 05:38:05 10° SE visible
02 Dec ? 17:48:21 10° S 17:51:57 50° W 17:55:36 10° NNW visible
03 Dec ? 05:14:08 10° ENE 05:15:08 11° E 05:16:06 10° ESE visible
03 Dec ? 06:45:38 10° N 06:49:22 78° WNW 06:53:04 10° SSW visible
03 Dec ? 17:28:00 10° SSE 17:31:42 85° WSW 17:35:27 10° NNW visible
04 Dec ? 06:25:26 10° NNE 06:29:09 62° ESE 06:32:48 10° S visible
04 Dec ? 17:07:53 10° SSE 17:11:31 57° ENE 17:15:11 10° N visible
04 Dec ? 18:43:31 10° WSW 18:45:35 14° W 18:47:41 10° NW visible
05 Dec ? 06:05:22 10° NNE 06:08:52 37° E 06:12:18 10° SSE visible
05 Dec ? 16:47:59 10° SE 16:51:22 35° ENE 16:54:48 10° N visible
05 Dec ? 18:22:12 10° SSW 18:25:11 23° W 18:28:10 10° NW visible
06 Dec ? 05:45:28 10° NE 05:48:30 23° E 05:51:30 10° SSE visible
06 Dec ? 16:28:20 10° ESE 16:31:17 23° ENE 16:34:15 10° NNE visible
06 Dec ? 18:01:23 10° SSW 18:04:49 36° W 18:08:18 10° NNW visible
07 Dec ? 05:25:56 10° NE 05:28:05 15° E 05:30:12 10° SE visible
07 Dec ? 06:58:29 10° N 07:02:09 56° WNW 07:05:46 10° SSW visible
07 Dec ? 17:40:51 10° S 17:44:31 61° W 17:48:14 10° NNW visible
08 Dec ? 06:38:11 10° NNE 06:41:56 86° ESE 06:45:38 10° SSW visible
08 Dec ? 17:20:34 10° SSE 17:24:16 80° ENE 17:28:01 10° NNW visible
08 Dec ? 18:57:39 10° W 18:58:31 11° W 18:59:22 10° WNW visible
